Location: Stara Lesna
(49.1528°N, 20.2911°E)
Time: 08:08:20
(UTC+02:00)

Unknown - Pass Details

Date: 21 September 2019
Orbit: 549 x 551 km, 53.0° (Epoch: 22 October)

Event Time Altitude Azimuth Distance (km) Brightness Sun altitude
Exits shadow 04:26:04 51° 261° (W) 698 3.7 -19.3°
Maximum altitude 04:27:03 80° 338° (NNW) 565 3.6 -19.2°
Drops below altitude 10° 04:31:13 10° 66° (ENE) 1,830 7.6 -18.5°
Sets 04:33:27 0° 67° (ENE) 2,726 8.9 -18.2°
